This demonstration page uses our WeatherBlox Daily Observations layout. Learn more.

Left ArrowRight Arrow

Hourly Observations for October 4, 2016

Temp ( °F °C ) Dew Point ( °F °C ) Humidity (%) Winds ( mph kmh ) Pressure ( in mb ) Visibility ( mi km ) Precip ( " mm )
12:16 am 00:16 Clear 54 12 52 11 94 94 N N/A 30.12 1020 10 16.0934 N/A
12:36 am 00:36 Clear 54 12 52 11 94 94 N N/A 30.12 1020 10 16.0934 N/A
12:56 am 00:56 Clear 52 11 50 10 94 94 N N/A 30.12 1020 10 16.0934 N/A
1:16 am 01:16 Clear 52 11 52 11 100 100 N N/A 30.12 1020 10 16.0934 N/A
1:36 am 01:36 Clear 54 12 52 11 94 94 N N/A 30.12 1020 10 16.0934 N/A
1:56 am 01:56 Clear 54 12 52 11 94 94 N N/A 30.12 1020 10 16.0934 N/A
2:16 am 02:16 Clear 52 11 50 10 94 94 N N/A 30.12 1020 10 16.0934 N/A
2:36 am 02:36 Clear 52 11 50 10 94 94 N N/A 30.12 1020 10 16.0934 N/A
2:56 am 02:56 Clear 54 12 52 11 94 94 N N/A 30.12 1020 10 16.0934 N/A
3:16 am 03:16 Clear 52 11 52 11 100 100 N N/A 30.12 1020 7 11.26538 N/A
3:36 am 03:36 Clear 52 11 50 10 94 94 N N/A 30.12 1020 10 16.0934 N/A
3:56 am 03:56 Clear 52 11 52 11 100 100 N N/A 30.12 1020 7 11.26538 N/A
4:16 am 04:16 Clear 54 12 52 11 94 94 ESE 3 6 30.12 1020 7 11.26538 N/A
4:36 am 04:36 Clear 52 11 52 11 100 100 N N/A 30.12 1020 7 11.26538 N/A
4:56 am 04:56 Clear 54 12 52 11 94 94 N N/A 30.12 1020 7 11.26538 N/A
5:16 am 05:16 Clear 52 11 50 10 94 94 N N/A 30.12 1020 7 11.26538 N/A
5:36 am 05:36 Clear 52 11 50 10 94 94 N N/A 30.12 1020 7 11.26538 N/A
5:56 am 05:56 Clear 50 10 50 10 100 100 N N/A 30.12 1020 7 11.26538 N/A
6:16 am 06:16 Clear 52 11 50 10 94 94 N N/A 30.12 1020 7 11.26538 N/A
6:36 am 06:36 Clear 52 11 50 10 94 94 N N/A 30.12 1020 7 11.26538 N/A
6:56 am 06:56 Clear 52 11 50 10 94 94 N N/A 30.12 1020 5 8.0467 N/A
7:16 am 07:16 Clear 52 11 52 11 100 100 N N/A 30.15 1021 7 11.26538 N/A
7:35 am 07:35 Clear 52 11 50 10 94 94 N N/A 30.15 1021 7 11.26538 N/A
7:56 am 07:56 Sunny 52 11 50 10 94 94 N N/A 30.15 1021 7 11.26538 N/A
8:16 am 08:16 Sunny 52 11 50 10 94 94 N N/A 30.15 1021 5 8.0467 N/A
8:35 am 08:35 Sunny 54 12 52 11 94 94 N N/A 30.15 1021 7 11.26538 N/A
8:56 am 08:56 Sunny 57 14 54 12 88 88 ESE 5 7 30.12 1020 10 16.0934 N/A
9:16 am 09:16 Sunny 59 15 55 13 88 88 ESE 5 7 30.12 1020 10 16.0934 N/A
9:35 am 09:35 Sunny 61 16 55 13 83 83 ESE 5 7 30.12 1020 10 16.0934 N/A
9:56 am 09:56 Sunny 63 17 55 13 77 77 ESE 8 13 30.12 1020 10 16.0934 N/A
10:16 am 10:16 Mostly Cloudy 63 17 55 13 77 77 ESE 5 7 30.12 1020 10 16.0934 N/A
10:36 am 10:36 Cloudy 64 18 55 13 73 73 ESE 6 9 30.12 1020 10 16.0934 N/A
10:56 am 10:56 Cloudy 66 19 55 13 68 68 ESE 8 13 30.12 1020 10 16.0934 N/A
11:16 am 11:16 Cloudy 70 21 55 13 60 60 ESE 10 17 30.12 1020 10 16.0934 N/A
11:36 am 11:36 Partly Cloudy 70 21 55 13 60 60 SE 13 20 30.09 1019 10 16.0934 N/A
11:56 am 11:56 Sunny 72 22 55 13 57 57 SE 12 19 30.06 1018 10 16.0934 N/A
12:15 pm 12:15 Sunny 72 22 55 13 57 57 ESE 12 19 30.06 1018 10 16.0934 N/A
12:36 pm 12:36 Sunny 73 23 55 13 53 53 ESE 10 17 30.06 1018 10 16.0934 N/A
12:56 pm 12:56 Sunny 75 24 55 13 50 50 ESE 10 17 30.06 1018 10 16.0934 N/A
1:15 pm 13:15 Sunny 75 24 55 13 50 50 SE 12 19 30.06 1018 10 16.0934 N/A
1:36 pm 13:36 Sunny 77 25 55 13 47 47 SE 14 22 30.06 1018 10 16.0934 N/A
1:56 pm 13:56 Sunny 77 25 55 13 47 47 ESE 14 22 30.03 1017 10 16.0934 N/A
2:15 pm 14:15 Sunny 77 25 55 13 47 47 ESE 10 17 30.03 1017 10 16.0934 N/A
2:36 pm 14:36 Partly Cloudy 77 25 55 13 47 47 SSE 12 19 30.03 1017 10 16.0934 N/A
2:56 pm 14:56 Partly Cloudy 79 26 55 13 45 45 SSE 10 17 30.03 1017 10 16.0934 N/A
3:15 pm 15:15 Partly Cloudy 79 26 55 13 45 45 SSE 12 19 30.03 1017 10 16.0934 N/A
3:36 pm 15:36 Partly Cloudy 79 26 55 13 45 45 ESE 10 17 30.03 1017 10 16.0934 N/A
3:56 pm 15:56 Mostly Cloudy 79 26 55 13 45 45 SSE 10 17 30 1016 10 16.0934 N/A
4:15 pm 16:15 Mostly Cloudy 79 26 55 13 45 45 SE 8 13 30 1016 10 16.0934 N/A
4:36 pm 16:36 Partly Cloudy 77 25 55 13 47 47 SSE 12 19 30 1016 10 16.0934 N/A
4:56 pm 16:56 Partly Cloudy 79 26 55 13 45 45 S 8 13 30 1016 10 16.0934 N/A
5:15 pm 17:15 Partly Cloudy 79 26 55 13 45 45 SSE 9 15 30 1016 10 16.0934 N/A
5:36 pm 17:36 Partly Cloudy 77 25 55 13 47 47 SE 9 15 30 1016 10 16.0934 N/A
5:56 pm 17:56 Partly Cloudy 77 25 55 13 47 47 SSE 8 13 30 1016 10 16.0934 N/A
6:16 pm 18:16 Sunny 77 25 55 13 47 47 SSE 6 9 30 1016 10 16.0934 N/A
6:36 pm 18:36 Sunny 75 24 57 14 54 54 SE 5 7 30 1016 10 16.0934 N/A
6:56 pm 18:56 Sunny 73 23 57 14 57 57 SE 5 7 30 1016 10 16.0934 N/A
7:16 pm 19:16 Sunny 72 22 55 13 57 57 SE 5 7 30 1016 10 16.0934 N/A
7:36 pm 19:36 Clear 70 21 57 14 64 64 ESE 5 7 30 1016 10 16.0934 N/A
7:56 pm 19:56 Clear 68 20 57 14 69 69 ESE 3 6 30.03 1017 10 16.0934 N/A
8:16 pm 20:16 Clear 66 19 57 14 73 73 ESE 3 6 30.03 1017 10 16.0934 N/A
8:36 pm 20:36 Clear 66 19 57 14 73 73 ESE 5 7 30.03 1017 10 16.0934 N/A
8:56 pm 20:56 Clear 66 19 57 14 73 73 SE 5 7 30.03 1017 10 16.0934 N/A
9:16 pm 21:16 Clear 66 19 57 14 73 73 SE 5 7 30.03 1017 10 16.0934 N/A
9:36 pm 21:36 Clear 66 19 57 14 73 73 SE 6 9 30.03 1017 10 16.0934 N/A
9:55 pm 21:55 Clear 66 19 57 14 73 73 SE 5 7 30.06 1018 10 16.0934 N/A
10:16 pm 22:16 Clear 66 19 57 14 73 73 SE 5 7 30.06 1018 10 16.0934 N/A
10:36 pm 22:36 Clear 66 19 57 14 73 73 SE 6 9 30.06 1018 10 16.0934 N/A
10:55 pm 22:55 Clear 66 19 57 14 73 73 SE 5 7 30.06 1018 10 16.0934 N/A
11:16 pm 23:16 Clear 64 18 57 14 78 78 SE 5 7 30.06 1018 10 16.0934 N/A
11:35 pm 23:35 Clear 64 18 57 14 78 78 SE 5 7 30.06 1018 10 16.0934 N/A
11:56 pm 23:56 Clear 64 18 57 14 78 78 SE 5 7 30.06 1018 10 16.0934 N/A

Powered by AerisWeather